Location: Doverdale
(52.2833°N, 2.2000°W)
Time: 03:41:49
(UTC+00:00)

Cosmos 1315 Rocket - Pass Details

Date: 29 October 2020
Orbit: 530 x 567 km, 81.2° (Epoch: 27 November)

Event Time Altitude Azimuth Distance (km) Brightness Sun altitude
Rises 17:42:05 0° 150° (SSE) 2,687 6.1 -9.3°
Reaches altitude 10° 17:44:43 10° 132° (SE) 1,808 5.1 -9.7°
Maximum altitude 17:47:29 18° 88° (E) 1,369 4.2 -10.1°
Drops below altitude 10° 17:50:16 10° 44° (NE) 1,835 5.0 -10.5°
Enters shadow 17:51:55 - 31° (NNE) 2,368 5.7 -10.8°
